GW2785 Weather Reports


time (UTC)temp
C
wind
direction
speed
KPH
gust
KPH
rain 1hr
cm
rain 24hr
cm
rain mn
cm
humidity
%
barometer
mb
20260903010804 25 164 0.0 0.0 0.00 0.00 0.00 95 1012.7
20260903010259 25 164 0.0 0.0 0.00 0.00 0.00 95 1012.6
20260903005757 25 164 0.0 0.0 0.00 0.00 0.00 94 1012.5
20260903005252 26 164 0.0 0.0 0.00 0.00 0.00 92 1012.6
20260903004748 26 164 0.0 0.0 0.00 0.00 0.00 91 1012.4
20260903004244 26 164 0.0 0.0 0.00 0.00 0.00 91 1012.5
20260903003739 26 164 0.0 0.0 0.00 0.00 0.00 89 1012.5
20260903003235 26 164 0.0 0.0 0.00 0.00 0.00 88 1012.3
20260903002729 27 164 0.0 0.0 0.00 0.00 0.00 87 1012.3
20260903002223 27 164 0.0 0.0 0.00 0.00 0.00 86 1012.5
20260903001719 27 164 0.0 0.0 0.00 0.00 0.00 85 1012.3
20260903001212 28 164 0.0 0.0 0.00 0.00 0.00 83 1012.1
20260903000708 28 164 0.0 0.0 0.00 0.00 0.00 83 1012.3
20260903000204 29 164 0.0 0.0 0.00 0.00 0.00 81 1012.3
20260902235700 29 164 0.0 0.0 0.00 0.00 0.00 76 1012.2
20260902235155 30 161 0.0 0.0 0.00 0.00 0.00 76 1012.4
20260902234650 31 161 0.0 0.0 0.00 0.00 0.00 75 1012.3
20260902234149 31 161 0.0 0.0 0.00 0.00 0.00 73 1012.4
20260902233644 31 161 0.0 0.0 0.00 0.00 0.00 68 1012.2
20260902233143 32 159 0.0 1.6 0.00 0.00 0.00 68 1012.3
20260902232642 32 160 0.0 0.0 0.00 0.00 0.00 69 1012.2
20260902232141 32 158 1.6 1.6 0.00 0.00 0.00 67 1012.3
20260902231636 32 161 0.0 0.0 0.00 0.00 0.00 64 1012.1
20260902231131 33 158 0.0 0.0 0.00 0.00 0.00 66 1012.3
20260902230626 33 154 3.2 3.2 0.00 0.00 0.00 64 1012.2
20260902230124 33 159 1.6 1.6 0.00 0.00 0.00 64 1012.4
20260902225620 33 162 0.0 0.0 0.00 0.00 0.00 65 1012.3
20260902225119 33 142 4.8 4.8 0.00 0.00 0.00 62 1012.4
20260902224618 34 159 3.2 4.8 0.00 0.00 0.00 63 1012.4
20260902224114 33 157 0.0 1.6 0.00 0.00 0.00 62 1012.2
20260902223611 33 154 1.6 1.6 0.00 0.00 0.00 65 1012.4
20260902223109 33 150 3.2 4.8 0.00 0.00 0.00 63 1012.4
20260902222608 33 153 3.2 3.2 0.00 0.00 0.00 64 1012.3
20260902222107 33 143 4.8 9.7 0.00 0.00 0.00 63 1012.4
20260902221601 33 156 3.2 6.4 0.00 0.00 0.00 63 1012.6
20260902221056 33 152 3.2 4.8 0.00 0.00 0.00 61 1012.4
20260902220552 34 150 1.6 3.2 0.00 0.00 0.00 62 1012.8
20260902220046 33 139 4.8 4.8 0.00 0.00 0.00 66 1012.5
20260902215542 34 144 3.2 3.2 0.00 0.00 0.00 62 1012.4
20260902215037 35 153 6.4 9.7 0.00 0.00 0.00 62 1012.6
20260902214532 35 140 4.8 6.4 0.00 0.00 0.00 59 1012.7
20260902214031 34 130 1.6 3.2 0.00 0.00 0.00 61 1012.7
20260902213527 35 157 1.6 1.6 0.00 0.00 0.00 62 1012.7
20260902213026 34 159 1.6 1.6 0.00 0.00 0.00 64 1012.6
20260902212522 33 149 6.4 6.4 0.00 0.00 0.00 61 1012.6
20260902212018 33 159 1.6 1.6 0.00 0.00 0.00 64 1012.5
20260902211514 35 157 1.6 3.2 0.00 0.00 0.00 63 1012.7
20260902211008 34 147 6.4 6.4 0.00 0.00 0.00 61 1012.6
20260902210503 33 133 4.8 6.4 0.00 0.00 0.00 61 1012.6
20260902210001 34 149 0.0 1.6 0.00 0.00 0.00 65 1012.7
20260902205456 35 125 6.4 11.3 0.00 0.00 0.00 61 1012.8
20260902204952 34 154 0.0 0.0 0.00 0.00 0.00 64 1012.7
20260902204451 35 123 4.8 6.4 0.00 0.00 0.00 59 1013.1
20260902203947 35 110 11.3 12.9 0.00 0.00 0.00 59 1012.8
20260902203443 34 140 1.6 1.6 0.00 0.00 0.00 61 1013.0
20260902202941 34 147 4.8 4.8 0.00 0.00 0.00 60 1012.9
20260902202437 35 121 1.6 4.8 0.00 0.00 0.00 57 1013.0
20260902201934 34 160 4.8 4.8 0.00 0.00 0.00 59 1012.9
20260902201429 34 154 1.6 3.2 0.00 0.00 0.00 57 1013.0
20260902200928 35 149 3.2 4.8 0.00 0.00 0.00 59 1012.7
20260902200424 35 137 6.4 6.4 0.00 0.00 0.00 59 1013.1
20260902195919 35 157 3.2 6.4 0.00 0.00 0.00 59 1012.9
20260902195414 35 159 1.6 3.2 0.00 0.00 0.00 60 1013.0
20260902194909 34 156 1.6 1.6 0.00 0.00 0.00 58 1013.2
20260902194408 34 140 9.7 11.3 0.00 0.00 0.00 60 1013.2
20260902193903 34 133 3.2 4.8 0.00 0.00 0.00 62 1013.3
20260902193359 33 153 6.4 9.7 0.00 0.00 0.00 65 1013.4
20260902192858 34 137 8.0 9.7 0.00 0.00 0.00 58 1013.5
20260902192357 35 161 3.2 4.8 0.00 0.00 0.00 61 1013.4
20260902191851 34 161 1.6 3.2 0.00 0.00 0.00 59 1013.7
20260902191347 34 154 3.2 4.8 0.00 0.00 0.00 61 1013.6
20260902190842 34 155 4.8 4.8 0.00 0.00 0.00 60 1013.6
20260902190341 33 145 4.8 9.7 0.00 0.00 0.00 65 1013.8
20260902185837 33 173 9.7 12.9 0.00 0.00 0.00 62 1013.9
20260902185332 35 139 9.7 11.3 0.00 0.00 0.00 60 1013.7
20260902184828 33 161 3.2 3.2 0.00 0.00 0.00 64 1013.9
20260902184323 34 164 4.8 6.4 0.00 0.00 0.00 64 1013.9
20260902183819 33 156 6.4 9.7 0.00 0.00 0.00 63 1013.9
20260902183315 33 125 11.3 14.5 0.00 0.00 0.00 64 1013.8
20260902182811 33 156 3.2 3.2 0.00 0.00 0.00 67 1013.9
20260902182307 33 140 4.8 4.8 0.00 0.00 0.00 67 1013.9
20260902181803 34 162 1.6 1.6 0.00 0.00 0.00 61 1013.9
20260902181258 33 151 4.8 6.4 0.00 0.00 0.00 65 1014.1
20260902180752 32 154 3.2 4.8 0.00 0.00 0.00 67 1014.0
20260902180248 34 162 0.0 0.0 0.00 0.00 0.00 62 1014.0
20260902175743 33 164 3.2 4.8 0.00 0.00 0.00 64 1014.3
20260902175239 33 130 6.4 6.4 0.00 0.00 0.00 68 1014.3
20260902174734 33 132 6.4 6.4 0.00 0.00 0.00 67 1014.3
20260902174230 33 118 6.4 9.7 0.00 0.00 0.00 64 1014.7
20260902173726 33 175 3.2 6.4 0.00 0.00 0.00 64 1014.3
20260902173226 33 133 4.8 6.4 0.00 0.00 0.00 65 1014.6
20260902172720 32 148 4.8 6.4 0.00 0.00 0.00 65 1014.6
20260902172220 33 167 6.4 6.4 0.00 0.00 0.00 64 1014.7
20260902171715 33 138 0.0 0.0 0.00 0.00 0.00 63 1014.8
20260902171210 33 156 11.3 12.9 0.00 0.00 0.00 62 1014.6
20260902170707 32 157 3.2 3.2 0.00 0.00 0.00 66 1014.7
20260902170202 32 153 3.2 4.8 0.00 0.00 0.00 64 1014.8
20260902165656 33 127 9.7 12.9 0.00 0.00 0.00 64 1014.6
20260902165150 33 164 8.0 9.7 0.00 0.00 0.00 65 1014.7
20260902164646 33 126 9.7 11.3 0.00 0.00 0.00 65 1014.7
20260902164145 32 159 3.2 4.8 0.00 0.00 0.00 70 1014.9
20260902163640 32 146 6.4 6.4 0.00 0.00 0.00 68 1015.1
20260902163140 32 152 6.4 6.4 0.00 0.00 0.00 71 1014.9
20260902162638 32 130 8.0 9.7 0.00 0.00 0.00 67 1015.1
20260902162133 32 151 1.6 3.2 0.00 0.00 0.00 68 1014.9
20260902161628 32 152 1.6 1.6 0.00 0.00 0.00 69 1015.0
20260902161124 31 144 3.2 3.2 0.00 0.00 0.00 71 1014.7
20260902160620 31 135 4.8 4.8 0.00 0.00 0.00 72 1015.0
20260902160115 32 149 0.0 1.6 0.00 0.00 0.00 71 1015.0
20260902155613 32 164 4.8 4.8 0.00 0.00 0.00 69 1015.0
20260902155112 31 153 0.0 1.6 0.00 0.00 0.00 73 1014.9
20260902154608 31 146 8.0 12.9 0.00 0.00 0.00 71 1015.0
20260902154102 31 159 1.6 3.2 0.00 0.00 0.00 77 1015.0
20260902153601 31 150 4.8 4.8 0.00 0.00 0.00 73 1015.1
20260902153056 31 153 1.6 1.6 0.00 0.00 0.00 76 1015.1
20260902152553 31 155 1.6 3.2 0.00 0.00 0.00 75 1015.2
20260902152047 31 159 0.0 0.0 0.00 0.00 0.00 76 1015.1
20260902151544 31 162 0.0 1.6 0.00 0.00 0.00 74 1014.9
20260902151043 30 163 4.8 6.4 0.00 0.00 0.00 75 1015.2
20260902150538 30 164 3.2 4.8 0.00 0.00 0.00 77 1015.4
20260902150033 30 131 4.8 6.4 0.00 0.00 0.00 77 1015.3
20260902145523 30 157 1.6 3.2 0.00 0.00 0.00 77 1015.2
20260902145023 30 131 6.4 9.7 0.00 0.00 0.00 77 1015.4
20260902144520 30 148 0.0 0.0 0.00 0.00 0.00 79 1015.4
20260902144020 30 157 1.6 1.6 0.00 0.00 0.00 80 1015.3
20260902143515 30 156 1.6 3.2 0.00 0.00 0.00 80 1015.2
20260902143010 30 150 4.8 4.8 0.00 0.00 0.00 79 1015.4
20260902142506 29 157 1.6 3.2 0.00 0.00 0.00 80 1015.2
20260902142001 29 152 3.2 4.8 0.00 0.00 0.00 80 1015.3
20260902141455 28 162 1.6 3.2 0.00 0.00 0.00 80 1015.2
20260902140949 28 143 4.8 6.4 0.00 0.00 0.00 84 1015.6
20260902140445 28 152 1.6 3.2 0.00 0.00 0.00 83 1015.2
20260902135939 28 150 1.6 3.2 0.00 0.00 0.00 80 1015.3
20260902135435 28 163 0.0 0.0 0.00 0.00 0.00 83 1015.1
20260902134933 28 161 1.6 1.6 0.00 0.00 0.00 84 1015.3
20260902134430 28 167 0.0 0.0 0.00 0.00 0.00 85 1015.3
20260902133924 28 164 0.0 0.0 0.00 0.00 0.00 84 1015.4
20260902133419 27 170 1.6 1.6 0.00 0.00 0.00 88 1015.6
20260902132914 27 183 3.2 3.2 0.00 0.00 0.00 88 1015.2
20260902132409 27 170 1.6 1.6 0.00 0.00 0.00 86 1015.1
20260902131904 27 178 3.2 3.2 0.00 0.00 0.00 87 1015.1
20260902131401 27 168 1.6 3.2 0.00 0.00 0.00 86 1015.2
20260902130900 27 166 0.0 0.0 0.00 0.00 0.00 88 1015.1
20260902130356 27 164 0.0 0.0 0.00 0.00 0.00 88 1015.3
20260902125851 26 161 0.0 0.0 0.00 0.00 0.00 91 1015.2
20260902125347 25 167 0.0 0.0 0.00 0.00 0.00 93 1015.2
20260902124843 25 163 0.0 0.0 0.00 0.00 0.00 96 1015.1
20260902124339 23 163 0.0 0.0 0.00 0.00 0.00 99 1015.2
20260902123833 23 160 0.0 0.0 0.00 0.00 0.00 99 1015.2
20260902123330 23 162 0.0 0.0 0.00 0.00 0.00 99 1015.1
20260902122828 23 162 0.0 0.0 0.00 0.00 0.00 99 1015.1
20260902122325 22 164 0.0 0.0 0.00 0.00 0.00 99 1015.1
20260902121824 22 164 0.0 0.0 0.00 0.00 0.00 99 1015.1
20260902121319 22 164 0.0 0.0 0.00 0.00 0.00 99 1015.0
20260902120814 21 162 0.0 0.0 0.00 0.00 0.00 99 1015.1
20260902120311 21 162 0.0 0.0 0.00 0.00 0.00 99 1015.0
20260902115805 21 162 0.0 0.0 0.00 0.00 0.00 99 1014.9
20260902115306 20 163 0.0 0.0 0.00 0.00 0.00 99 1014.9
20260902114758 20 162 0.0 0.0 0.00 0.00 0.00 99 1015.0
20260902114253 20 162 0.0 0.0 0.00 0.00 0.00 99 1014.7
20260902113748 20 162 0.0 0.0 0.00 0.00 0.00 99 1014.6
20260902113243 20 162 0.0 0.0 0.00 0.00 0.00 99 1014.6
20260902112742 20 162 0.0 0.0 0.00 0.00 0.00 99 1014.6
20260902112240 20 162 0.0 0.0 0.00 0.00 0.00 99 1014.4
20260902111735 20 162 0.0 0.0 0.00 0.00 0.00 99 1014.5
20260902111231 20 162 0.0 0.0 0.00 0.00 0.00 99 1014.5
20260902110727 20 162 0.0 0.0 0.00 0.00 0.00 99 1014.5
20260902110222 20 162 0.0 0.0 0.00 0.00 0.00 99 1014.4
20260902105721 20 162 0.0 0.0 0.00 0.00 0.00 99 1014.5
20260902105216 20 162 0.0 0.0 0.00 0.00 0.00 99 1014.4
20260902104712 20 162 0.0 0.0 0.00 0.00 0.00 99 1014.5
20260902104208 20 162 0.0 0.0 0.00 0.00 0.00 99 1014.5
20260902103707 20 162 0.0 0.0 0.00 0.00 0.00 99 1014.6
20260902103202 20 162 0.0 0.0 0.00 0.00 0.00 99 1014.5
20260902102658 20 162 0.0 0.0 0.00 0.00 0.00 99 1014.5
20260902102155 20 162 0.0 0.0 0.00 0.00 0.00 99 1014.6
20260902101650 20 162 0.0 0.0 0.00 0.00 0.00 99 1014.6
20260902101150 20 162 0.0 0.0 0.00 0.00 0.00 99 1014.4
20260902100644 20 162 0.0 0.0 0.00 0.00 0.00 99 1014.4
20260902100139 20 162 0.0 0.0 0.00 0.00 0.00 99 1014.4
20260902095638 20 162 0.0 0.0 0.00 0.00 0.00 99 1014.5
20260902095138 20 162 0.0 0.0 0.00 0.00 0.00 99 1014.5
20260902094633 20 164 0.0 0.0 0.00 0.00 0.00 99 1014.3
20260902094130 20 163 0.0 0.0 0.00 0.00 0.00 99 1014.3
20260902093629 20 162 0.0 0.0 0.00 0.00 0.00 99 1014.5
20260902093124 20 162 0.0 0.0 0.00 0.00 0.00 99 1014.3
20260902092619 20 162 0.0 0.0 0.00 0.00 0.00 99 1014.4
20260902092114 20 165 0.0 0.0 0.00 0.00 0.00 99 1014.3
20260902091609 20 162 0.0 0.0 0.00 0.00 0.00 99 1014.2
20260902091105 20 162 0.0 0.0 0.00 0.00 0.00 99 1014.3
20260902090601 20 162 0.0 0.0 0.00 0.00 0.00 99 1014.2
20260902090059 20 162 0.0 0.0 0.00 0.00 0.00 99 1014.2
20260902085554 20 162 0.0 0.0 0.00 0.00 0.00 99 1014.1
20260902085049 20 162 0.0 0.0 0.00 0.00 0.00 99 1014.1
20260902084545 20 162 0.0 0.0 0.00 0.00 0.00 99 1013.9
20260902084041 20 162 0.0 0.0 0.00 0.00 0.00 99 1013.8
20260902083536 20 162 0.0 0.0 0.00 0.00 0.00 99 1013.8
20260902083036 20 162 0.0 0.0 0.00 0.00 0.00 99 1013.8
20260902082532 20 162 0.0 0.0 0.00 0.00 0.00 99 1013.9
20260902082028 20 160 0.0 0.0 0.00 0.00 0.00 99 1013.9
20260902081525 20 161 0.0 0.0 0.00 0.00 0.00 99 1013.7
20260902081024 20 161 0.0 0.0 0.00 0.00 0.00 99 1013.9
20260902080519 20 156 0.0 0.0 0.00 0.00 0.00 99 1013.7
20260902080016 20 161 0.0 0.0 0.00 0.00 0.00 99 1013.8
20260902075510 20 161 0.0 0.0 0.00 0.00 0.00 99 1013.7
20260902075007 20 161 0.0 0.0 0.00 0.00 0.00 99 1013.8
20260902074501 20 159 0.0 0.0 0.00 0.00 0.00 99 1013.6
20260902073955 20 160 0.0 0.0 0.00 0.00 0.00 99 1013.6
20260902073452 20 162 0.0 0.0 0.00 0.00 0.00 99 1013.7
20260902072948 21 162 0.0 0.0 0.00 0.00 0.00 99 1013.6
20260902072444 21 162 0.0 0.0 0.00 0.00 0.00 99 1013.7
20260902071940 21 162 0.0 0.0 0.00 0.00 0.00 99 1013.4
20260902071439 21 162 0.0 0.0 0.00 0.00 0.00 99 1013.6
20260902070936 21 162 0.0 0.0 0.00 0.00 0.00 99 1013.5
20260902070431 21 162 0.0 0.0 0.00 0.00 0.00 99 1013.5
20260902065930 21 162 0.0 0.0 0.00 0.00 0.00 99 1013.6
20260902065425 21 162 0.0 0.0 0.00 0.00 0.00 99 1013.9
20260902064921 21 162 0.0 0.0 0.00 0.00 0.00 99 1013.6
20260902064416 21 162 0.0 0.0 0.00 0.00 0.00 99 1013.8
20260902063911 21 162 0.0 0.0 0.00 0.00 0.00 99 1013.9
20260902063411 21 162 0.0 0.0 0.00 0.00 0.00 99 1013.7
20260902062906 21 162 0.0 0.0 0.00 0.00 0.00 99 1013.7
20260902062405 21 161 0.0 0.0 0.00 0.00 0.00 99 1013.8
20260902061905 21 161 0.0 0.0 0.00 0.00 0.00 99 1013.8
20260902061400 21 161 0.0 0.0 0.00 0.00 0.00 99 1013.6
20260902060857 21 161 0.0 0.0 0.00 0.00 0.00 99 1013.8
20260902060352 21 159 0.0 0.0 0.00 0.00 0.00 99 1013.6
20260902055848 21 160 0.0 0.0 0.00 0.00 0.00 99 1013.6
20260902055344 21 160 0.0 0.0 0.00 0.00 0.00 99 1013.8
20260902054839 21 161 0.0 0.0 0.00 0.00 0.00 99 1013.8
20260902054335 21 161 0.0 0.0 0.00 0.00 0.00 99 1013.7
20260902053830 21 160 0.0 0.0 0.00 0.00 0.00 99 1013.5
20260902053325 21 160 0.0 0.0 0.00 0.00 0.00 99 1013.7
20260902052823 21 161 0.0 0.0 0.00 0.00 0.00 99 1013.7
20260902052320 21 161 0.0 0.0 0.00 0.00 0.00 99 1013.7
20260902051814 21 160 0.0 0.0 0.00 0.00 0.00 99 1013.7
20260902051308 21 160 0.0 0.0 0.00 0.00 0.00 99 1013.8
20260902050803 21 160 0.0 0.0 0.00 0.00 0.00 99 1013.6
20260902050303 21 161 0.0 0.0 0.00 0.00 0.00 99 1013.7
20260902045757 21 161 0.0 0.0 0.00 0.00 0.00 99 1013.7
20260902045253 21 161 0.0 0.0 0.00 0.00 0.00 99 1013.8
20260902044749 22 161 0.0 0.0 0.00 0.00 0.00 99 1013.7
20260902044244 22 161 0.0 0.0 0.00 0.00 0.00 99 1013.6
20260902043739 22 160 0.0 0.0 0.00 0.00 0.00 99 1013.6
20260902043235 22 161 0.0 0.0 0.00 0.00 0.00 99 1013.7
20260902042734 22 161 0.0 0.0 0.00 0.00 0.00 99 1013.4
20260902042229 22 160 0.0 0.0 0.00 0.00 0.00 99 1013.9
20260902041724 22 160 0.0 0.0 0.00 0.00 0.00 99 1013.6
20260902041219 22 160 0.0 0.0 0.00 0.00 0.00 99 1013.7
20260902040718 22 161 0.0 0.0 0.00 0.00 0.00 99 1013.9
20260902040214 22 161 0.0 0.0 0.00 0.00 0.00 99 1013.7
20260902035712 22 161 0.0 0.0 0.00 0.00 0.00 99 1013.8
20260902035208 22 160 0.0 0.0 0.00 0.00 0.00 99 1013.8
20260902034707 22 160 0.0 0.0 0.00 0.00 0.00 99 1014.0
20260902034206 22 159 0.0 0.0 0.00 0.00 0.00 99 1013.9
20260902033704 22 161 0.0 0.0 0.00 0.00 0.00 99 1013.8
20260902033154 22 162 0.0 0.0 0.00 0.00 0.00 99 1013.7
20260902032652 22 161 0.0 0.0 0.00 0.00 0.00 99 1013.7
20260902032148 22 161 0.0 0.0 0.00 0.00 0.00 99 1013.7
20260902031642 22 161 0.0 0.0 0.00 0.00 0.00 99 1013.7
20260902031138 23 161 0.0 0.0 0.00 0.00 0.00 99 1013.5
20260902030634 23 162 0.0 0.0 0.00 0.00 0.00 98 1013.8
20260902030133 23 162 0.0 0.0 0.00 0.00 0.00 98 1013.8
20260902025633 23 162 0.0 0.0 0.00 0.00 0.00 98 1013.6
20260902025128 23 162 0.0 0.0 0.00 0.00 0.00 98 1013.7
20260902024623 23 162 0.0 0.0 0.00 0.00 0.00 99 1013.6
20260902024118 23 162 0.0 0.0 0.00 0.00 0.00 98 1013.7
20260902023614 23 162 0.0 0.0 0.00 0.00 0.00 98 1013.7
20260902023109 23 162 0.0 0.0 0.00 0.00 0.00 98 1013.6
20260902022608 23 161 0.0 0.0 0.00 0.00 0.00 97 1013.8
20260902022104 23 162 0.0 0.0 0.00 0.00 0.00 96 1013.7
20260902021559 24 162 0.0 0.0 0.00 0.00 0.00 95 1013.6
20260902021054 24 162 0.0 0.0 0.00 0.00 0.00 94 1013.5
20260902020550 25 163 0.0 0.0 0.00 0.00 0.00 93 1013.6
20260902020046 25 155 0.0 0.0 0.00 0.00 0.00 93 1013.4
20260902015541 25 165 0.0 0.0 0.00 0.00 0.00 92 1013.6
20260902015036 24 165 0.0 0.0 0.00 0.00 0.00 94 1013.5
20260902014532 25 165 0.0 0.0 0.00 0.00 0.00 94 1013.4
20260902014027 25 165 0.0 0.0 0.00 0.00 0.00 94 1013.4
20260902013522 25 166 0.0 0.0 0.00 0.00 0.00 94 1013.5
20260902013018 25 162 0.0 0.0 0.00 0.00 0.00 95 1013.5
20260902012513 25 161 0.0 0.0 0.00 0.00 0.00 95 1013.2
20260902012008 25 168 0.0 0.0 0.00 0.00 0.00 95 1013.3
20260902011504 25 164 0.0 0.0 0.00 0.00 0.00 94 1013.3